Tracking 27423 objects as of 8-Jun-2023
HD Live streaming from Space Station
objects crossing your sky now

STARLINK-1506

Track STARLINK-1506 now!
10-day predictions
STARLINK-1506 is classified as:


NORAD ID: 45747
Int'l Code: 2020-038T
Perigee: 553.8 km
Apogee: 554.8 km
Inclination: 53.1 °
Period: 95.6 minutes
Semi major axis: 6925 km
RCS: Unknown
Launch date: June 13, 2020
Source: United States (US)
Launch site: AIR FORCE EASTERN TEST RANGE (AFETR)
Your satellite tracking list
Your tracking list is empty




NASA's NSSDC Master Catalog

Two Line Element Set (TLE):
1 45747U 20038T   23159.13186913  .00021740  00000-0  14730-2 0  9993
2 45747  53.0546  70.7413 0000747 120.2200 239.8864 15.06422380164630
Source of the keplerian elements: AFSPC